Location: Bushrod
(6.3500°N, 10.7833°W)
Time: 22:34:34
(UTC+00:00)

Okean 2 - Pass Details

Date: 17 September 2019
Orbit: 560 x 577 km, 82.5° (Epoch: 17 October)

Event Time Altitude Azimuth Distance (km) Brightness Sun altitude
Rises 19:26:35 0° 359° (N) 2,745 6.9 -11.9°
Reaches altitude 10° 19:28:45 10° 2° (N) 1,853 6.0 -12.4°
Maximum altitude 19:32:49 72° 86° (E) 598 3.3 -13.5°
Drops below altitude 10° 19:36:55 10° 171° (S) 1,867 5.9 -14.5°
Sets 19:39:07 0° 173° (S) 2,768 6.8 -15.0°
